Météo par heure à Alimbay

Ce jour, 15 Mai, Samedi

Heure Température Précipitation Vent Pression Humidité
00:00 +20°C° 0 mm 2 m/s 746 mmHg 39%
01:00 +19°C° 0 mm 3 m/s 746 mmHg 42%
02:00 +19°C° 0 mm 2 m/s 746 mmHg 44%
03:00 +19°C° 0 mm 2 m/s 746 mmHg 46%
04:00 +18°C° 0 mm 2 m/s 746 mmHg 48%
05:00 +20°C° 0 mm 2 m/s 747 mmHg 46%
06:00 +21°C° 0 mm 2 m/s 747 mmHg 44%
07:00 +24°C° 0 mm 1 m/s 747 mmHg 42%
08:00 +25°C° 0 mm 1 m/s 747 mmHg 37%
09:00 +27°C° 0 mm 1 m/s 747 mmHg 33%
10:00 +29°C° 0 mm 1 m/s 747 mmHg 28%
11:00 +29°C° 0 mm 1 m/s 747 mmHg 26%
12:00 +30°C° 0 mm 1 m/s 746 mmHg 24%
13:00 +31°C° 0 mm 1 m/s 746 mmHg 22%
14:00 +31°C° 0 mm 1 m/s 746 mmHg 22%
15:00 +31°C° 0 mm 1 m/s 746 mmHg 22%
16:00 +31°C° 0 mm 1 m/s 746 mmHg 21%
17:00 +30°C° 0 mm 2 m/s 745 mmHg 25%
18:00 +29°C° 0 mm 2 m/s 745 mmHg 30%
19:00 +27°C° 0 mm 3 m/s 745 mmHg 34%
20:00 +26°C° 0 mm 2 m/s 745 mmHg 33%
21:00 +25°C° 0 mm 2 m/s 745 mmHg 33%
22:00 +24°C° 0 mm 2 m/s 745 mmHg 33%
23:00 +23°C° 0 mm 2 m/s 745 mmHg 37%

Demain, 16 Mai, Dimanche

Heure Température Précipitation Vent Pression Humidité
00:00 +21°C° 0 mm 2 m/s 745 mmHg 41%
01:00 +20°C° 0 mm 2 m/s 745 mmHg 45%
02:00 +21°C° 0 mm 1 m/s 745 mmHg 46%
03:00 +20°C° 0 mm 1 m/s 745 mmHg 47%
04:00 +20°C° 0 mm 1 m/s 745 mmHg 48%
05:00 +21°C° 0 mm 1 m/s 745 mmHg 45%
06:00 +23°C° 0 mm 1 m/s 746 mmHg 41%
07:00 +25°C° 0 mm 1 m/s 746 mmHg 38%
08:00 +27°C° 0 mm 1 m/s 746 mmHg 35%
09:00 +28°C° 0 mm 1 m/s 746 mmHg 31%
10:00 +30°C° 0 mm 1 m/s 746 mmHg 28%
11:00 +30°C° 0 mm 1 m/s 746 mmHg 26%
12:00 +31°C° 0 mm 1 m/s 745 mmHg 23%
13:00 +32°C° 0 mm 1 m/s 745 mmHg 20%
14:00 +32°C° 0 mm 1 m/s 745 mmHg 20%
15:00 +32°C° 0 mm 2 m/s 745 mmHg 20%
16:00 +32°C° 0 mm 2 m/s 745 mmHg 19%
17:00 +30°C° 0 mm 2 m/s 744 mmHg 26%
18:00 +28°C° 0 mm 3 m/s 744 mmHg 33%
19:00 +26°C° 0 mm 3 m/s 744 mmHg 40%
20:00 +25°C° 0 mm 2 m/s 744 mmHg 41%
21:00 +24°C° 0 mm 2 m/s 744 mmHg 41%
22:00 +23°C° 0 mm 1 m/s 744 mmHg 41%
23:00 +23°C° 0 mm 1 m/s 744 mmHg 42%

Après-demain, 17 Mai, Lundi

Heure Température Précipitation Vent Pression Humidité
00:00 +22°C° 0 mm 1 m/s 744 mmHg 43%
01:00 +22°C° 0 mm 1 m/s 744 mmHg 43%
02:00 +22°C° 0 mm 1 m/s 744 mmHg 43%
03:00 +20°C° 0 mm 2 m/s 744 mmHg 44%
04:00 +20°C° 0 mm 2 m/s 744 mmHg 44%
05:00 +23°C° 0 mm 2 m/s 745 mmHg 42%
06:00 +24°C° 0 mm 2 m/s 745 mmHg 39%
07:00 +26°C° 0 mm 2 m/s 745 mmHg 37%
08:00 +27°C° 0 mm 2 m/s 745 mmHg 34%
09:00 +29°C° 0 mm 1 m/s 745 mmHg 30%
10:00 +30°C° 0 mm 1 m/s 745 mmHg 27%
11:00 +31°C° 0 mm 1 m/s 745 mmHg 24%
12:00 +32°C° 0 mm 1 m/s 745 mmHg 22%
13:00 +32°C° 0 mm 1 m/s 745 mmHg 20%
14:00 +32°C° 0 mm 2 m/s 744 mmHg 22%
15:00 +32°C° 0 mm 2 m/s 744 mmHg 23%
16:00 +31°C° 0 mm 2 m/s 744 mmHg 25%
17:00 +29°C° 0.1 mm 2 m/s 744 mmHg 32%
18:00 +27°C° 0.1 mm 3 m/s 744 mmHg 40%
19:00 +25°C° 0.1 mm 3 m/s 744 mmHg 47%
20:00 +24°C° 0.1 mm 3 m/s 744 mmHg 50%
21:00 +23°C° 0.1 mm 2 m/s 744 mmHg 53%
22:00 +22°C° 0.1 mm 1 m/s 744 mmHg 56%
23:00 +22°C° 0 mm 1 m/s 744 mmHg 55%

18 Mai, Mardi

Heure Température Précipitation Vent Pression Humidité
00:00 +22°C° 0 mm 1 m/s 743 mmHg 55%
01:00 +21°C° 0 mm 1 m/s 743 mmHg 54%
02:00 +21°C° 0 mm 1 m/s 743 mmHg 55%
03:00 +20°C° 0 mm 1 m/s 743 mmHg 56%
04:00 +20°C° 0 mm 1 m/s 743 mmHg 57%
05:00 +21°C° 0 mm 1 m/s 743 mmHg 53%
06:00 +23°C° 0 mm 1 m/s 743 mmHg 49%
07:00 +24°C° 0 mm 1 m/s 743 mmHg 45%
08:00 +26°C° 0 mm 1 m/s 743 mmHg 42%
09:00 +27°C° 0 mm 1 m/s 743 mmHg 38%
10:00 +29°C° 0 mm 2 m/s 743 mmHg 34%
11:00 +30°C° 0 mm 2 m/s 742 mmHg 32%
12:00 +30°C° 0 mm 1 m/s 742 mmHg 29%
13:00 +31°C° 0 mm 1 m/s 742 mmHg 26%
14:00 +32°C° 0 mm 1 m/s 741 mmHg 26%
15:00 +32°C° 0 mm 1 m/s 741 mmHg 25%
16:00 +32°C° 0 mm 1 m/s 741 mmHg 24%
17:00 +30°C° 0 mm 2 m/s 741 mmHg 32%
18:00 +28°C° 0 mm 3 m/s 741 mmHg 40%
19:00 +25°C° 0 mm 4 m/s 741 mmHg 47%
20:00 +23°C° 0 mm 4 m/s 741 mmHg 51%
21:00 +22°C° 0 mm 4 m/s 741 mmHg 55%
22:00 +21°C° 0 mm 4 m/s 741 mmHg 58%
23:00 +20°C° 0 mm 3 m/s 741 mmHg 59%

19 Mai, Mercredi

Heure Température Précipitation Vent Pression Humidité
00:00 +20°C° 0 mm 3 m/s 740 mmHg 59%
01:00 +20°C° 0 mm 2 m/s 740 mmHg 59%
02:00 +20°C° 0.1 mm 3 m/s 740 mmHg 59%
03:00 +19°C° 0.1 mm 3 m/s 740 mmHg 60%
04:00 +19°C° 0.1 mm 3 m/s 740 mmHg 60%
05:00 +20°C° 0.1 mm 3 m/s 740 mmHg 57%
06:00 +22°C° 0.1 mm 4 m/s 740 mmHg 53%
07:00 +23°C° 0.1 mm 4 m/s 741 mmHg 49%
08:00 +26°C° 0 mm 4 m/s 741 mmHg 44%
09:00 +27°C° 0 mm 5 m/s 741 mmHg 40%
10:00 +29°C° 0 mm 6 m/s 741 mmHg 35%
11:00 +29°C° 0 mm 5 m/s 741 mmHg 35%
12:00 +29°C° 0 mm 4 m/s 741 mmHg 36%
13:00 +29°C° 0 mm 3 m/s 741 mmHg 36%
14:00 +26°C° 1.2 mm 4 m/s 741 mmHg 49%
15:00 +22°C° 1.2 mm 5 m/s 742 mmHg 62%
16:00 +20°C° 1.2 mm 6 m/s 742 mmHg 75%
17:00 +20°C° 0.2 mm 5 m/s 742 mmHg 70%
18:00 +21°C° 0.2 mm 4 m/s 742 mmHg 65%
19:00 +22°C° 0.2 mm 3 m/s 742 mmHg 60%
20:00 +21°C° 0 mm 4 m/s 742 mmHg 57%
21:00 +20°C° 0 mm 4 m/s 742 mmHg 55%
22:00 +19°C° 0 mm 5 m/s 743 mmHg 53%
23:00 +19°C° 0 mm 4 m/s 743 mmHg 56%

20 Mai, Jeudi

Heure Température Précipitation Vent Pression Humidité
00:00 +18°C° 0 mm 4 m/s 743 mmHg 59%
01:00 +17°C° 0 mm 4 m/s 744 mmHg 62%
02:00 +17°C° 0 mm 4 m/s 744 mmHg 64%
03:00 +15°C° 0 mm 5 m/s 744 mmHg 65%
04:00 +15°C° 0 mm 5 m/s 744 mmHg 67%
05:00 +16°C° 0 mm 5 m/s 745 mmHg 63%
06:00 +16°C° 0 mm 6 m/s 745 mmHg 60%
07:00 +17°C° 0 mm 6 m/s 745 mmHg 56%
08:00 +20°C° 0 mm 6 m/s 746 mmHg 50%
09:00 +21°C° 0 mm 6 m/s 746 mmHg 43%
10:00 +23°C° 0 mm 6 m/s 746 mmHg 37%
11:00 +23°C° 0 mm 6 m/s 746 mmHg 34%
12:00 +24°C° 0 mm 6 m/s 746 mmHg 31%
13:00 +26°C° 0 mm 5 m/s 746 mmHg 28%
14:00 +27°C° 0 mm 5 m/s 746 mmHg 27%
15:00 +27°C° 0 mm 5 m/s 746 mmHg 26%
16:00 +27°C° 0 mm 5 m/s 746 mmHg 26%
17:00 +26°C° 0 mm 5 m/s 746 mmHg 30%
18:00 +25°C° 0 mm 4 m/s 746 mmHg 35%
19:00 +23°C° 0 mm 4 m/s 746 mmHg 39%
20:00 +21°C° 0 mm 4 m/s 746 mmHg 40%
21:00 +20°C° 0 mm 4 m/s 746 mmHg 41%
22:00 +19°C° 0 mm 4 m/s 746 mmHg 42%
23:00 +18°C° 0 mm 4 m/s 746 mmHg 42%
Voir plus

Nous avons besoin de votre consentement

Meteoprog et ses fournisseurs de services peuvent stocker et accéder à des données personnelles telles que des cookies, des identifiants d'appareils ou d'autres technologies similaires sur votre appareil et traiter ces données pour personnaliser le contenu et les publicités, ainsi que pour fournir des fonctionnalités de médias sociaux et analyser le trafic.

  • Stocker et/ou accéder à des informations sur votre appareil

    Des cookies, des identifiants d'appareils ou d'autres informations peuvent être stockés ou accessibles sur votre appareil aux fins indiquées ci-dessus.

  • Annonces et contenus personnalisés, mesure des annonces et des contenus, connaissance de l'audience et développement de produits

    Les annonces et le contenu peuvent être personnalisés en fonction d'un profil. D'autres données peuvent être ajoutées pour mieux personnaliser les annonces et le contenu. Les performances des publicités et du contenu peuvent être mesurées. Il est possible d'obtenir des informations sur le public qui a vu les publicités et le contenu. Ces données peuvent être utilisées pour développer ou améliorer l'expérience de l'utilisateur, les systèmes et les logiciels.

En cliquant sur "J'accepte", vous autorisez l'utilisation de cookies, des identifiants d'appareils, des balises web ou d'autres technologies similaires. Vos paramètres peuvent être modifiés dans le navigateur de votre appareil.

Dans certains cas, des intérêts légitimes peuvent être invoqués plutôt qu'un consentement. Vous pouvez en savoir plus à ce sujet dans notre Politique de confidentialité et de cookies.